EW7812 Weather Reports


Display with metric or nautical units.
time (UTC)temp
F
wind
direction
speed
MPH
gust
MPH
rain 1hr
in
rain 24hr
in
rain mn
in
humidity
%
barometer
mb
20221003084943 46 14 3.0 0.0 0.00 0.00 0.00 73 1012.9
20221003084438 46 355 3.0 0.0 0.00 0.00 0.00 72 1012.5
20221003083938 47 360 3.0 0.0 0.00 0.00 0.00 71 1012.2
20221003083440 48 12 3.0 0.0 0.00 0.00 0.00 69 1012.2
20221003082939 48 49 0.0 0.0 0.00 0.00 0.00 69 1012.2
20221003082414 48 49 0.0 0.0 0.00 0.00 0.00 69 1012.2
20221003082017 48 57 1.0 0.0 0.00 0.00 0.00 69 1011.2
20221003081515 48 9 1.0 0.0 0.00 0.00 0.00 68 1011.2
20221003081016 49 350 4.0 0.0 0.00 0.00 0.00 66 1011.2
20221003080515 50 45 0.0 0.0 0.00 0.00 0.00 65 1010.8
20221003080015 50 45 0.0 0.0 0.00 0.00 0.00 65 1010.8
20221003075613 50 355 1.0 0.0 0.00 0.00 0.00 65 1010.8
20221003075111 51 355 0.0 0.0 0.00 0.00 0.00 64 1010.8
20221003074614 51 40 1.0 0.0 0.00 0.00 0.00 64 1010.8
20221003074114 51 19 3.0 0.0 0.00 0.00 0.00 64 1010.8
20221003073615 51 360 0.0 0.0 0.00 0.00 0.00 63 1010.8
20221003073111 51 24 4.0 0.0 0.00 0.00 0.00 63 1010.8
20221003072618 51 22 4.0 0.0 0.00 0.00 0.00 64 1010.8
20221003072115 51 24 3.0 0.0 0.00 0.00 0.00 64 1011.5
20221003071615 51 19 3.0 0.0 0.00 0.00 0.00 64 1011.2
20221003071112 51 9 2.0 0.0 0.00 0.00 0.00 65 1011.2
20221003070612 51 26 3.0 0.0 0.00 0.00 0.00 65 1011.5
20221003070116 51 19 2.0 0.0 0.00 0.00 0.00 65 1011.5
20221003065612 51 5 3.0 0.0 0.00 0.00 0.00 65 1011.5
20221003065114 51 17 2.0 0.0 0.00 0.00 0.00 65 1011.5
20221003064611 51 360 3.0 0.0 0.00 0.00 0.00 65 1011.9
20221003064112 51 10 0.0 0.0 0.00 0.00 0.00 65 1011.9
20221003063613 51 347 1.0 0.0 0.00 0.00 0.00 65 1011.9
20221003063110 51 9 3.0 0.0 0.00 0.00 0.00 64 1011.9
20221003062612 51 360 1.0 0.0 0.00 0.00 0.00 64 1011.9
20221003062111 51 328 0.0 0.0 0.00 0.00 0.00 64 1012.5
20221003061615 51 306 2.0 0.0 0.00 0.00 0.00 63 1012.9
20221003061111 51 337 1.0 0.0 0.00 0.00 0.00 64 1012.9
20221003060610 51 344 4.0 0.0 0.00 0.00 0.00 64 1012.9
20221003060114 51 344 3.0 0.0 0.00 0.00 0.00 64 1012.9
20221003055616 52 28 4.0 0.0 0.00 0.00 0.00 63 1012.5
20221003055113 52 5 2.0 0.0 0.00 0.00 0.00 63 1012.5
20221003054616 52 12 3.0 0.0 0.00 0.00 0.00 62 1012.5
20221003054114 52 24 1.0 0.0 0.00 0.00 0.00 62 1012.5
20221003053614 52 295 3.0 0.0 0.00 0.00 0.00 62 1012.5
20221003053111 52 290 0.0 0.0 0.00 0.00 0.00 62 1012.5
20221003052611 52 290 0.0 0.0 0.00 0.00 0.00 63 1012.5
20221003052116 52 26 0.0 0.0 0.00 0.00 0.00 63 1013.5
20221003051613 52 5 1.0 0.0 0.00 0.00 0.00 63 1013.5
20221003051109 52 355 3.0 0.0 0.00 0.00 0.00 64 1013.2
20221003050611 51 360 2.0 0.0 0.00 0.00 0.00 64 1013.5
20221003050112 51 30 3.0 0.0 0.00 0.00 0.00 64 1013.5
20221003045615 51 17 4.0 0.0 0.00 0.00 0.00 64 1013.5
20221003045115 52 18 4.0 0.0 0.00 0.00 0.00 64 1013.5
20221003044617 52 330 2.0 0.0 0.00 0.00 0.00 63 1013.5
20221003044112 52 301 3.0 0.0 0.00 0.00 0.00 64 1013.5
20221003043612 51 281 2.0 0.0 0.00 0.00 0.00 65 1013.5
20221003043109 51 323 1.0 0.0 0.00 0.00 0.00 65 1013.5
20221003042615 51 331 3.0 0.0 0.00 0.00 0.00 65 1013.5
20221003042114 52 5 3.0 0.0 0.00 0.00 0.00 64 1013.9
20221003041611 52 351 1.0 0.0 0.00 0.00 0.00 64 1013.9
20221003041112 52 325 1.0 0.0 0.00 0.00 0.00 64 1013.9
20221003040611 52 9 0.0 0.0 0.00 0.00 0.00 63 1013.9
20221003040115 52 12 2.0 0.0 0.00 0.00 0.00 63 1013.9
20221003035613 52 348 4.0 0.0 0.00 0.00 0.00 63 1013.9
20221003035114 52 360 3.0 0.0 0.00 0.00 0.00 63 1013.9
20221003034611 53 355 3.0 0.0 0.00 0.00 0.00 63 1013.9
20221003034114 52 11 2.0 0.0 0.00 0.00 0.00 63 1013.9
20221003033613 52 360 2.0 0.0 0.00 0.00 0.00 64 1013.9
20221003033111 52 355 1.0 0.0 0.00 0.00 0.00 64 1014.2
20221003032613 52 22 2.0 0.0 0.00 0.00 0.00 65 1013.9
20221003032115 52 20 2.0 0.0 0.00 0.00 0.00 65 1014.2
20221003031616 52 355 1.0 0.0 0.00 0.00 0.00 65 1014.2
20221003031113 52 5 2.0 0.0 0.00 0.00 0.00 65 1014.2
20221003030615 52 348 2.0 0.0 0.00 0.00 0.00 65 1014.2
20221003030115 53 32 1.0 0.0 0.00 0.00 0.00 64 1014.2
20221003025611 53 15 3.0 0.0 0.00 0.00 0.00 64 1013.9
20221003025113 53 22 4.0 0.0 0.00 0.00 0.00 64 1014.2
20221003024611 53 9 2.0 0.0 0.00 0.00 0.00 63 1013.5
20221003024110 54 13 3.0 0.0 0.00 0.00 0.00 63 1013.2
20221003023615 54 360 1.0 0.0 0.00 0.00 0.00 63 1013.2
20221003023114 54 5 2.0 0.0 0.00 0.00 0.00 63 1013.2
20221003022612 54 19 3.0 0.0 0.00 0.00 0.00 63 1013.2
20221003022114 55 28 1.0 0.0 0.00 0.00 0.00 63 1013.2
20221003021615 55 5 2.0 0.0 0.00 0.00 0.00 63 1012.9
20221003021112 55 17 2.0 0.0 0.00 0.00 0.00 64 1012.9
20221003020714 55 13 2.0 0.0 0.00 0.00 0.00 64 1012.9
20221003020215 55 32 3.0 0.0 0.00 0.00 0.00 64 1012.9
20221003015712 55 5 2.0 0.0 0.00 0.00 0.00 65 1012.9
20221003015212 54 360 1.0 0.0 0.00 0.00 0.00 65 1013.2
20221003014715 54 28 3.0 0.0 0.00 0.00 0.00 65 1013.2
20221003014212 54 360 2.0 0.0 0.00 0.00 0.00 65 1012.9
20221003013714 55 360 3.0 0.0 0.00 0.00 0.00 64 1012.9
20221003013213 55 17 4.0 0.0 0.00 0.00 0.00 64 1012.9
20221003012713 55 19 3.0 0.0 0.00 0.00 0.00 64 1012.9
20221003012212 55 17 4.0 0.0 0.00 0.00 0.00 64 1013.5
20221003011712 55 355 5.0 0.0 0.00 0.00 0.00 64 1013.5
20221003011212 55 360 5.0 0.0 0.00 0.00 0.00 63 1013.5
20221003010716 56 355 4.0 0.0 0.00 0.00 0.00 63 1012.9
20221003010215 56 18 3.0 0.0 0.00 0.00 0.00 62 1012.9
20221003005714 57 38 3.0 0.0 0.00 0.00 0.00 60 1012.9
20221003005213 58 5 1.0 0.0 0.00 0.00 0.00 59 1012.2
20221003004714 58 22 2.0 0.0 0.00 0.00 0.00 58 1012.2
20221003004212 59 20 2.0 0.0 0.00 0.00 0.00 57 1012.2
20221003003712 60 351 2.0 0.0 0.00 0.00 0.00 55 1011.9
20221003003213 60 210 0.0 0.0 0.00 0.00 0.00 54 1011.9
20221003002712 61 210 0.0 0.0 0.00 0.00 0.00 54 1011.9
20221003002213 61 210 0.0 0.0 0.00 0.00 0.00 52 1011.9
20221003001715 62 210 1.0 0.0 0.00 0.00 0.00 52 1011.5
20221003001213 63 177 2.0 0.0 0.00 0.00 0.00 49 1010.8
20221003000713 64 78 0.0 0.0 0.00 0.00 0.00 48 1010.8
20221003000214 65 80 1.0 0.0 0.00 0.00 0.00 47 1010.2
20221002235712 66 143 1.0 0.0 0.00 0.00 0.00 45 1009.5
20221002235214 67 272 0.0 0.0 0.00 0.00 0.00 45 1009.5
20221002234714 66 34 0.0 0.0 0.00 0.00 0.00 46 1009.5
20221002234212 66 128 1.0 0.0 0.00 0.00 0.00 46 1010.2
20221002233714 66 25 4.0 0.0 0.00 0.00 0.00 47 1010.2
20221002233214 65 111 1.0 0.0 0.00 0.00 0.00 48 1010.2
20221002232713 65 30 3.0 0.0 0.00 0.00 0.00 47 1010.2
20221002232211 65 209 3.0 0.0 0.00 0.00 0.00 46 1010.8
20221002231715 64 76 0.0 0.0 0.00 0.00 0.00 48 1010.8
20221002231218 64 167 2.0 0.0 0.00 0.00 0.00 48 1010.8
20221002230712 65 82 1.0 0.0 0.00 0.00 0.00 47 1010.8
20221002230215 65 70 1.0 0.0 0.00 0.00 0.00 47 1010.8
20221002225712 65 173 3.0 0.0 0.00 0.00 0.00 47 1010.8
20221002225214 65 133 1.0 0.0 0.00 0.00 0.00 47 1010.8
20221002224715 65 5 4.0 0.0 0.00 0.00 0.00 47 1010.8
20221002224213 64 163 3.0 0.0 0.00 0.00 0.00 47 1010.8
20221002223713 64 73 3.0 0.0 0.00 0.00 0.00 47 1010.8
20221002223211 64 47 0.0 0.0 0.00 0.00 0.00 47 1010.8
20221002222711 64 169 3.0 0.0 0.00 0.00 0.00 47 1010.8
20221002222212 64 65 0.0 0.0 0.00 0.00 0.00 46 1010.8
20221002221713 65 71 1.0 0.0 0.00 0.00 0.00 46 1010.8
20221002221145 65 42 3.0 0.0 0.00 0.00 0.00 45 1010.8
20221002220712 65 196 3.0 0.0 0.00 0.00 0.00 46 1010.8
20221002220215 64 109 0.0 0.0 0.00 0.00 0.00 47 1010.8
20221002215715 64 72 2.0 0.0 0.00 0.00 0.00 47 1011.2
20221002215142 64 250 1.0 0.0 0.00 0.00 0.00 47 1011.2
20221002214642 64 205 3.0 0.0 0.00 0.00 0.00 47 1011.2
20221002214142 64 196 6.0 0.0 0.00 0.01 0.00 47 1011.2
20221002213642 64 186 12.0 0.0 0.00 0.01 0.00 47 1011.2
20221002213213 64 194 7.0 0.0 0.00 0.01 0.00 47 1010.8
20221002212642 64 211 7.0 0.0 0.00 0.01 0.00 47 1010.8
20221002212215 64 212 7.0 0.0 0.00 0.01 0.00 47 1010.8
20221002211715 65 80 2.0 0.0 0.00 0.01 0.00 47 1010.8
20221002211214 65 19 3.0 0.0 0.00 0.01 0.00 47 1010.8
20221002210643 65 240 3.0 0.0 0.00 0.01 0.00 47 1010.5
20221002210215 65 130 1.0 0.0 0.00 0.01 0.00 49 1010.8
20221002205643 65 96 4.0 0.0 0.00 0.01 0.00 48 1010.8
20221002205140 64 150 5.0 0.0 0.00 0.01 0.00 49 1011.2
20221002204643 64 112 1.0 0.0 0.00 0.01 0.00 48 1010.8
20221002204215 65 109 9.0 0.0 0.00 0.01 0.00 48 1010.5
20221002203714 66 105 2.0 0.0 0.00 0.01 0.00 46 1010.5
20221002203211 67 106 1.0 0.0 0.00 0.01 0.00 44 1009.8
20221002202639 68 128 2.0 0.0 0.00 0.01 0.00 43 1010.2
20221002202212 68 275 1.0 0.0 0.00 0.01 0.00 44 1009.8
20221002201813 68 90 2.0 0.0 0.00 0.01 0.00 44 1010.5
20221002201240 67 167 1.0 0.0 0.00 0.01 0.00 43 1010.8
20221002200741 66 244 2.0 0.0 0.00 0.01 0.00 39 1010.8
20221002200237 66 167 3.0 0.0 0.00 0.01 0.00 39 1010.8
20221002195740 66 229 9.0 0.0 0.00 0.01 0.00 40 1010.8
20221002195239 66 271 1.0 0.0 0.00 0.01 0.00 41 1010.8
20221002194740 66 306 2.0 0.0 0.00 0.01 0.00 40 1011.2
20221002194240 67 306 1.0 0.0 0.00 0.01 0.00 39 1011.2
20221002193737 68 311 4.0 0.0 0.00 0.01 0.00 40 1010.8
20221002193238 68 238 3.0 0.0 0.00 0.01 0.00 41 1010.8
20221002192739 67 336 2.0 0.0 0.00 0.01 0.00 46 1011.2
20221002192240 66 318 2.0 0.0 0.00 0.01 0.00 44 1011.5
20221002191743 64 222 3.0 0.0 0.00 0.01 0.00 45 1012.2
20221002191239 64 203 3.0 0.0 0.00 0.01 0.00 45 1012.5
20221002190741 64 206 5.0 0.0 0.00 0.01 0.00 46 1012.5
20221002190239 64 178 3.0 0.0 0.00 0.01 0.00 45 1012.5
20221002185739 64 190 4.0 0.0 0.00 0.01 0.00 46 1012.5
20221002185241 63 213 4.0 0.0 0.00 0.01 0.00 47 1012.9
20221002184738 63 209 6.0 0.0 0.00 0.01 0.00 47 1012.9
20221002184236 63 200 4.0 0.0 0.00 0.01 0.00 48 1012.9
20221002183738 63 30 2.0 0.0 0.00 0.01 0.00 48 1012.9
20221002183241 63 350 3.0 0.0 0.00 0.01 0.00 50 1012.9
20221002182737 62 339 1.0 0.0 0.00 0.01 0.00 49 1013.5
20221002182236 62 292 1.0 0.0 0.00 0.01 0.00 51 1013.5
20221002181741 61 355 0.0 0.0 0.00 0.02 0.00 50 1013.5
20221002181241 61 344 4.0 0.0 0.00 0.02 0.00 52 1013.9
20221002180740 61 355 5.0 0.0 0.00 0.02 0.00 51 1013.5
20221002180240 61 336 4.0 0.0 0.00 0.02 0.00 51 1013.9
20221002175744 61 10 6.0 0.0 0.00 0.02 0.00 51 1013.9
20221002175242 60 5 5.0 0.0 0.00 0.02 0.00 53 1013.9
20221002174739 60 18 3.0 0.0 0.00 0.02 0.00 53 1014.2
20221002174237 60 292 1.0 0.0 0.00 0.02 0.00 52 1014.2
20221002173739 60 211 5.0 0.0 0.00 0.02 0.00 53 1014.2
20221002173215 59 252 5.0 0.0 0.00 0.02 0.00 54 1014.9
20221002172743 59 206 4.0 0.0 0.00 0.02 0.00 54 1015.2
20221002172212 59 341 0.0 0.0 0.00 0.02 0.00 58 1014.2
20221002171712 58 278 2.0 0.0 0.00 0.02 0.00 57 1015.2
20221002171213 58 290 3.0 0.0 0.00 0.02 0.00 57 1015.2
20221002170713 58 302 6.0 0.0 0.00 0.02 0.00 58 1015.2
20221002170215 57 340 3.0 0.0 0.00 0.02 0.00 60 1015.2
20221002165714 57 18 3.0 0.0 0.00 0.02 0.00 60 1015.2
20221002165215 57 323 5.0 0.0 0.00 0.02 0.00 61 1015.2
20221002164718 57 11 2.0 0.0 0.00 0.02 0.00 61 1015.2
20221002164214 57 346 4.0 0.0 0.00 0.02 0.00 60 1015.2
20221002163714 57 360 1.0 0.0 0.00 0.02 0.00 60 1015.2
20221002163212 57 336 3.0 0.0 0.00 0.02 0.00 60 1015.2
20221002162715 56 355 8.0 0.0 0.00 0.02 0.00 61 1015.9
20221002162212 56 338 4.0 0.0 0.00 0.02 0.00 62 1015.6
20221002161716 55 263 3.0 0.0 0.00 0.02 0.00 63 1015.6
20221002161215 55 325 1.0 0.0 0.00 0.02 0.00 64 1015.6
20221002160713 55 325 0.0 0.0 0.00 0.02 0.00 64 1015.6
20221002160213 54 11 4.0 0.0 0.00 0.02 0.00 65 1015.9
20221002155713 54 318 2.0 0.0 0.00 0.02 0.00 66 1016.3
20221002155212 54 346 2.0 0.0 0.00 0.02 0.00 67 1016.3
20221002154716 54 326 1.0 0.0 0.00 0.02 0.00 67 1016.3
20221002154214 54 344 5.0 0.0 0.00 0.02 0.00 67 1016.3
20221002153713 54 355 5.0 0.0 0.00 0.02 0.00 66 1016.3
20221002153215 54 338 5.0 0.0 0.00 0.02 0.00 66 1016.3
20221002152714 54 345 5.0 0.0 0.00 0.02 0.00 65 1016.3
20221002152213 54 316 3.0 0.0 0.00 0.02 0.00 65 1015.9
20221002151712 54 355 2.0 0.0 0.00 0.02 0.00 66 1015.9
20221002151211 54 360 1.0 0.0 0.00 0.02 0.00 64 1015.6
20221002150712 54 22 1.0 0.0 0.00 0.02 0.00 63 1015.6
20221002150211 54 346 2.0 0.0 0.00 0.02 0.00 62 1015.6
20221002145714 54 317 3.0 0.0 0.00 0.02 0.00 62 1015.6
20221002145214 54 355 3.0 0.0 0.00 0.02 0.00 61 1015.6
20221002144711 54 9 3.0 0.0 0.00 0.02 0.00 61 1015.6
20221002144216 54 342 1.0 0.0 0.00 0.02 0.00 62 1015.9
20221002143712 54 349 6.0 0.0 0.00 0.02 0.00 62 1015.9
20221002143214 54 271 2.0 0.0 0.00 0.02 0.00 62 1015.6
20221002142811 54 343 4.0 0.0 0.00 0.02 0.00 61 1015.6
20221002142314 54 346 16.0 0.0 0.00 0.02 0.00 62 1015.2
20221002141813 53 229 3.0 0.0 0.00 0.02 0.00 63 1015.6
20221002141314 52 14 4.0 0.0 0.00 0.02 0.00 64 1015.6
20221002140816 51 342 0.0 0.0 0.00 0.02 0.00 66 1015.9
20221002140313 51 360 4.0 0.0 0.00 0.02 0.00 66 1015.9
20221002135811 51 348 3.0 0.0 0.00 0.02 0.00 66 1015.9
20221002135312 50 315 5.0 0.0 0.00 0.02 0.00 67 1015.9
20221002134813 50 20 4.0 0.0 0.00 0.02 0.00 68 1015.9
20221002134312 50 38 2.0 0.0 0.00 0.02 0.00 67 1015.9
20221002133741 50 355 1.0 0.0 0.00 0.02 0.00 68 1015.6
20221002133315 50 331 2.0 0.0 0.00 0.02 0.00 68 1015.6
20221002132742 50 9 2.0 0.0 0.00 0.02 0.00 68 1015.2
20221002132312 50 360 6.0 0.0 0.00 0.02 0.00 68 1015.2
20221002131739 50 360 3.0 0.0 0.00 0.02 0.00 69 1014.9
20221002131242 49 321 2.0 0.0 0.00 0.02 0.00 69 1015.2
20221002130739 50 307 3.0 0.0 0.00 0.02 0.00 68 1014.6
20221002130238 50 360 2.0 0.0 0.00 0.02 0.00 68 1014.6
20221002125736 49 278 5.0 0.0 0.00 0.02 0.00 69 1015.2
20221002125239 49 281 3.0 0.0 0.00 0.02 0.00 70 1014.6
20221002124242 49 313 3.0 0.0 0.00 0.02 0.00 70 1014.6
20221002123739 49 342 2.0 0.0 0.00 0.02 0.00 71 1014.6
20221002123242 48 294 5.0 0.0 0.00 0.02 0.00 71 1014.9
20221002122738 48 318 2.0 0.0 0.00 0.02 0.00 71 1014.6
20221002122241 49 308 5.0 0.0 0.00 0.02 0.00 70 1014.6
20221002121741 49 346 3.0 0.0 0.00 0.02 0.00 70 1013.9
20221002121238 49 17 1.0 0.0 0.00 0.02 0.00 71 1013.9
20221002120742 49 343 3.0 0.0 0.00 0.02 0.00 71 1013.9
20221002120248 48 10 4.0 0.0 0.00 0.02 0.00 72 1013.9
20221002115737 48 360 2.0 0.0 0.00 0.02 0.00 72 1013.9
20221002115241 48 342 1.0 0.0 0.00 0.02 0.00 71 1013.9
20221002114736 49 296 1.0 0.0 0.00 0.02 0.00 71 1013.5
20221002114242 49 319 1.0 0.0 0.00 0.02 0.00 71 1013.5
20221002113743 49 304 1.0 0.0 0.00 0.02 0.00 72 1013.5
20221002113243 48 355 5.0 0.0 0.00 0.02 0.00 72 1013.9
20221002112736 48 342 4.0 0.0 0.00 0.02 0.00 73 1013.9
20221002112238 48 321 0.0 0.0 0.00 0.02 0.00 74 1012.5
20221002111737 48 360 2.0 0.0 0.00 0.02 0.00 74 1012.5
20221002111238 48 84 0.0 0.0 0.00 0.02 0.00 75 1012.5
20221002110738 48 306 2.0 0.0 0.00 0.02 0.00 74 1012.5
20221002110245 48 314 0.0 0.0 0.00 0.02 0.00 74 1012.5
20221002105739 48 286 2.0 0.0 0.00 0.02 0.00 74 1012.5
20221002105241 48 296 2.0 0.0 0.00 0.02 0.00 74 1012.5
20221002104735 48 350 0.0 0.0 0.00 0.02 0.00 74 1012.5
20221002104243 48 315 3.0 0.0 0.00 0.02 0.00 74 1012.5
20221002103736 48 313 6.0 0.0 0.00 0.02 0.00 74 1012.2
20221002103242 48 319 2.0 0.0 0.00 0.02 0.00 75 1012.2
20221002102741 48 17 3.0 0.0 0.00 0.02 0.00 75 1012.2
20221002102238 48 331 2.0 0.0 0.00 0.02 0.00 75 1013.5
20221002101738 48 5 3.0 0.0 0.00 0.02 0.00 75 1013.5
20221002101241 48 313 7.0 0.0 0.00 0.02 0.00 75 1013.5
20221002100740 48 333 6.0 0.0 0.00 0.02 0.00 75 1013.5
20221002095742 48 329 4.0 0.0 0.00 0.02 0.00 75 1013.5
20221002095241 48 333 5.0 0.0 0.00 0.02 0.00 75 1013.9